Location: Zagreb
(45.8000°N, 16.0000°E)
Time: 19:14:57
(UTC+02:00)

SR - Pass Details

Date: 20 August 2020
Orbit: 583 x 873 km, 66.7° (Epoch: 28 September)

Event Time Altitude Azimuth Distance (km) Brightness Sun altitude
Rises 20:52:21 0° 234° (SW) 2,920 ? -9.9°
Reaches altitude 10° 20:54:49 10° 242° (WSW) 1,979 ? -10.3°
Maximum altitude 20:58:55 36° 311° (NW) 947 ? -10.9°
Drops below altitude 10° 21:02:53 10° 19° (NNE) 1,917 ? -11.5°
Sets 21:05:15 0° 28° (NNE) 2,815 ? -11.9°
